Weather in Huddersfield

United Kingdom     53°39′05″N   1°47′05″W
temp.,
°C
wind,
m/s
gust,
m/s
humid.,
%
clouds,
%
prec.,
mm/h
press.,
hPa
HPBL,
m
19 april, mon
mon1901:00+6e11776 0.0 102530
04:00+4ese11835 0.0 102415
07:00+4ese11815 0.0 102437
10:00+9ese22545 0.0 1023502
13:00+13ese33374 0.0 10221203
16:00+14se23361 0.0 10201573
19:00+13se23495 0.0 1019766
22:00+9sse116815 0.0 102018
20 april, tue
tue2001:00+7ese117819 0.0 102014
04:00+6e118433 0.0 102012
07:00+7e0082100 0.0 102040
10:00+10nne0065100 0.0 1020302
13:00+13wnw2150100 0.1 10201198
16:00+13nw3253100 0.1 10191213
19:00+12nne2465100 0.2 1020427
22:00+9ne1382100 0.1 1021177
21 april, wed
wed2101:00+7ne258355 0.1 1022294
04:00+7nne369297 0.0 1023385
07:00+6ne4693100 0.6 1024831
10:00+6e367673 0.0 1025757
13:00+10ene3354100 0.1 10251401
16:00+9e2357100 0.0 10251042
19:00+9ene235190 0.0 1024826
22:00+5e25685 0.0 1026267
22 april, thu
thu2201:00+3ese11745 0.0 102625
04:00+2s00779 0.0 102613
07:00+3sw007266 0.0 102645
10:00+8ese11439 0.0 1026496
13:00+12ese22355 0.0 10261161
16:00+14se213244 0.0 10251577
19:00+12se234246 0.0 1025713
22:00+8s126257 0.0 102749
23 april, fri
fri2301:00+6wsw117059 0.0 102719
04:00+5sw007326 0.0 102710
07:00+5s11685 0.0 102731
10:00+11se23450 0.0 1027554
13:00+14se33360 0.0 10261306
16:00+15se33310 0.0 10251581
19:00+13ese344161 0.0 10241005
22:00+9se245625 0.0 1026121